Time,TemperatureF,DewpointF,PressureIn,WindDirection,WindDirectionDegrees,WindSpeedMPH,WindSpeedGustMPH,Humidity,HourlyPrecipIn,Conditions,Clouds,dailyrainin,SoftwareType,DateUTC
2013-02-22 00:00:00,35.0,30.1,30.03,East,90,2.0,3.0,82,0.00,,---,0.00,VWS V14.01,2013-02-22 07:00:00,
2013-02-22 00:05:00,35.1,30.2,30.03,East,90,2.0,4.0,82,0.00,,---,0.00,VWS V14.01,2013-02-22 07:05:00,
2013-02-22 00:10:00,35.2,30.3,30.03,East,90,0.0,2.0,82,0.00,,---,0.00,VWS V14.01,2013-02-22 07:10:00,
2013-02-22 00:15:00,35.2,30.3,30.03,East,90,0.0,2.0,82,0.00,,---,0.00,VWS V14.01,2013-02-22 07:15:00,
2013-02-22 00:20:00,35.2,30.3,30.03,East,90,0.0,0.0,82,0.00,,---,0.00,VWS V14.01,2013-02-22 07:20:00,
2013-02-22 00:25:00,35.2,30.0,30.03,East,90,0.0,1.0,81,0.00,,---,0.00,VWS V14.01,2013-02-22 07:25:00,
2013-02-22 00:30:00,35.1,30.2,30.03,East,90,0.0,0.0,82,0.00,,---,0.00,VWS V14.01,2013-02-22 07:30:00,
2013-02-22 00:35:00,34.9,30.0,30.03,East,90,2.0,3.0,82,0.00,,---,0.00,VWS V14.01,2013-02-22 07:35:00,
2013-02-22 00:40:00,34.7,29.8,30.03,NE,53,0.0,3.0,82,0.00,,---,0.00,VWS V14.01,2013-02-22 07:40:00,
2013-02-22 00:45:00,34.7,29.8,30.03,NE,53,0.0,0.0,82,0.00,,---,0.00,VWS V14.01,2013-02-22 07:45:00,
2013-02-22 00:50:00,34.6,29.7,30.04,NE,52,1.0,2.0,82,0.00,,---,0.00,VWS V14.01,2013-02-22 07:50:00,
2013-02-22 00:55:00,34.4,29.5,30.03,NE,52,0.0,0.0,82,0.00,,---,0.00,VWS V14.01,2013-02-22 07:55:00,
2013-02-22 01:00:00,34.4,29.5,30.03,NE,53,2.0,4.0,82,0.00,,---,0.00,VWS V14.01,2013-02-22 08:00:00,
2013-02-22 01:05:00,34.6,29.7,30.03,North,355,2.0,4.0,82,0.00,,---,0.00,VWS V14.01,2013-02-22 08:05:00,
2013-02-22 01:10:00,34.8,29.9,30.03,North,350,0.0,0.0,82,0.00,,---,0.00,VWS V14.01,2013-02-22 08:10:00,
2013-02-22 01:15:00,34.8,29.9,30.03,North,350,0.0,0.0,82,0.00,,---,0.00,VWS V14.01,2013-02-22 08:15:00,
2013-02-22 01:20:00,34.7,29.8,30.03,North,350,0.0,0.0,82,0.00,,---,0.00,VWS V14.01,2013-02-22 08:20:00,
2013-02-22 01:25:00,34.6,29.7,30.03,North,349,0.0,0.0,82,0.00,,---,0.00,VWS V14.01,2013-02-22 08:25:00,
2013-02-22 01:30:00,34.5,29.6,30.03,North,350,0.0,0.0,82,0.00,,---,0.00,VWS V14.01,2013-02-22 08:30:00,
2013-02-22 01:35:00,34.4,29.5,30.03,North,349,0.0,0.0,82,0.00,,---,0.00,VWS V14.01,2013-02-22 08:35:00,
2013-02-22 01:40:00,34.3,29.4,30.03,North,349,0.0,0.0,82,0.00,,---,0.00,VWS V14.01,2013-02-22 08:40:00,
2013-02-22 01:45:00,33.9,29.3,30.04,North,349,0.0,0.0,83,0.00,,---,0.00,VWS V14.01,2013-02-22 08:45:00,
2013-02-22 01:50:00,33.6,29.0,30.03,North,349,0.0,0.0,83,0.00,,---,0.00,VWS V14.01,2013-02-22 08:50:00,
2013-02-22 01:55:00,33.5,29.2,30.03,North,350,0.0,0.0,84,0.00,,---,0.00,VWS V14.01,2013-02-22 08:55:00,
2013-02-22 02:00:00,33.6,29.3,30.03,North,350,0.0,0.0,84,0.00,,---,0.00,VWS V14.01,2013-02-22 09:00:00,
2013-02-22 02:05:00,33.7,29.4,30.03,North,350,0.0,0.0,84,0.00,,---,0.00,VWS V14.01,2013-02-22 09:05:00,
2013-02-22 02:10:00,33.6,29.3,30.02,North,350,0.0,0.0,84,0.00,,---,0.00,VWS V14.01,2013-02-22 09:10:00,
2013-02-22 02:15:00,33.5,29.2,30.02,North,350,0.0,0.0,84,0.00,,---,0.00,VWS V14.01,2013-02-22 09:15:00,
2013-02-22 02:20:00,32.9,28.3,30.02,North,350,0.0,0.0,83,0.00,,---,0.00,VWS V14.01,2013-02-22 09:20:00,
2013-02-22 02:25:00,32.1,27.8,30.03,North,350,0.0,0.0,84,0.00,,---,0.00,VWS V14.01,2013-02-22 09:25:00,
2013-02-22 02:30:00,31.7,27.7,30.03,North,349,0.0,0.0,85,0.00,,---,0.00,VWS V14.01,2013-02-22 09:30:00,
2013-02-22 02:35:00,31.6,27.9,30.03,North,350,0.0,0.0,86,0.00,,---,0.00,VWS V14.01,2013-02-22 09:35:00,
2013-02-22 02:40:00,31.6,28.2,30.03,North,350,0.0,0.0,87,0.00,,---,0.00,VWS V14.01,2013-02-22 09:40:00,
2013-02-22 02:45:00,32.0,28.9,30.03,North,350,0.0,0.0,88,0.00,,---,0.00,VWS V14.01,2013-02-22 09:45:00,
2013-02-22 02:50:00,32.1,29.0,30.03,North,350,0.0,0.0,88,0.00,,---,0.00,VWS V14.01,2013-02-22 09:50:00,
2013-02-22 02:55:00,31.7,28.3,30.03,North,350,0.0,0.0,87,0.00,,---,0.00,VWS V14.01,2013-02-22 09:55:00,
2013-02-22 03:00:00,31.0,27.6,30.03,North,349,0.0,0.0,87,0.00,,---,0.00,VWS V14.01,2013-02-22 10:00:00,
2013-02-22 03:05:00,30.4,27.0,30.03,North,349,0.0,0.0,87,0.00,,---,0.00,VWS V14.01,2013-02-22 10:05:00,
2013-02-22 03:10:00,30.0,26.9,30.02,North,349,0.0,0.0,88,0.00,,---,0.00,VWS V14.01,2013-02-22 10:10:00,
2013-02-22 03:15:00,29.8,26.7,30.03,North,350,0.0,0.0,88,0.00,,---,0.00,VWS V14.01,2013-02-22 10:15:00,
2013-02-22 03:20:00,29.9,27.1,30.03,North,349,0.0,0.0,89,0.00,,---,0.00,VWS V14.01,2013-02-22 10:20:00,
2013-02-22 03:25:00,29.7,26.9,30.03,North,349,0.0,0.0,89,0.00,,---,0.00,VWS V14.01,2013-02-22 10:25:00,
2013-02-22 03:30:00,29.0,25.9,30.03,NNW,348,0.0,0.0,88,0.00,,---,0.00,VWS V14.01,2013-02-22 10:30:00,
2013-02-22 03:35:00,28.5,25.4,30.03,North,349,0.0,0.0,88,0.00,,---,0.00,VWS V14.01,2013-02-22 10:35:00,
2013-02-22 03:40:00,28.3,25.5,30.03,North,349,0.0,0.0,89,0.00,,---,0.00,VWS V14.01,2013-02-22 10:40:00,
2013-02-22 03:45:00,28.2,25.4,30.04,North,349,0.0,0.0,89,0.00,,---,0.00,VWS V14.01,2013-02-22 10:45:00,
2013-02-22 03:50:00,27.8,25.0,30.04,North,349,0.0,0.0,89,0.00,,---,0.00,VWS V14.01,2013-02-22 10:50:00,
2013-02-22 03:55:00,27.6,24.8,30.03,North,360,3.0,3.0,89,0.00,,---,0.00,VWS V14.01,2013-02-22 10:55:00,
2013-02-22 04:00:00,27.6,25.1,30.03,North,360,2.0,3.0,90,0.00,,---,0.00,VWS V14.01,2013-02-22 11:00:00,
2013-02-22 04:05:00,27.5,25.0,30.03,North,360,0.0,0.0,90,0.00,,---,0.00,VWS V14.01,2013-02-22 11:05:00,
2013-02-22 04:10:00,27.4,24.9,30.03,North,360,0.0,0.0,90,0.00,,---,0.00,VWS V14.01,2013-02-22 11:10:00,
2013-02-22 04:15:00,27.3,24.8,30.04,North,360,2.0,2.0,90,0.00,,---,0.00,VWS V14.01,2013-02-22 11:15:00,
2013-02-22 04:20:00,27.2,24.7,30.04,North,360,1.0,3.0,90,0.00,,---,0.00,VWS V14.01,2013-02-22 11:20:00,
2013-02-22 04:25:00,27.4,24.9,30.04,North,360,1.0,2.0,90,0.00,,---,0.00,VWS V14.01,2013-02-22 11:25:00,
2013-02-22 04:30:00,27.4,24.9,30.04,North,360,2.0,3.0,90,0.00,,---,0.00,VWS V14.01,2013-02-22 11:30:00,
2013-02-22 04:35:00,27.3,24.8,30.04,North,360,2.0,2.0,90,0.00,,---,0.00,VWS V14.01,2013-02-22 11:35:00,
2013-02-22 04:40:00,27.2,24.7,30.04,North,360,3.0,3.0,90,0.00,,---,0.00,VWS V14.01,2013-02-22 11:40:00,
2013-02-22 04:45:00,27.2,24.7,30.05,North,360,2.0,3.0,90,0.00,,---,0.00,VWS V14.01,2013-02-22 11:45:00,
2013-02-22 04:50:00,27.3,25.0,30.05,North,360,0.0,2.0,91,0.00,,---,0.00,VWS V14.01,2013-02-22 11:50:00,
2013-02-22 04:55:00,27.2,24.9,30.05,NNE,15,2.0,3.0,91,0.00,,---,0.00,VWS V14.01,2013-02-22 11:55:00,
2013-02-22 05:00:00,27.1,24.8,30.05,NNE,15,2.0,3.0,91,0.00,,---,0.00,VWS V14.01,2013-02-22 12:00:00,
2013-02-22 05:05:00,27.2,24.9,30.05,North,5,2.0,3.0,91,0.00,,---,0.00,VWS V14.01,2013-02-22 12:05:00,
2013-02-22 05:10:00,27.2,24.9,30.05,North,5,1.0,3.0,91,0.00,,---,0.00,VWS V14.01,2013-02-22 12:10:00,
2013-02-22 05:15:00,27.0,24.7,30.06,North,5,2.0,3.0,91,0.00,,---,0.00,VWS V14.01,2013-02-22 12:15:00,
2013-02-22 05:20:00,27.0,24.5,30.06,North,5,3.0,3.0,90,0.00,,---,0.00,VWS V14.01,2013-02-22 12:20:00,
2013-02-22 05:25:00,27.0,24.7,30.06,North,360,2.0,2.0,91,0.00,,---,0.00,VWS V14.01,2013-02-22 12:25:00,
2013-02-22 05:30:00,27.0,24.7,30.06,North,5,3.0,4.0,91,0.00,,---,0.00,VWS V14.01,2013-02-22 12:30:00,
2013-02-22 05:35:00,26.9,24.4,30.06,North,5,2.0,3.0,90,0.00,,---,0.00,VWS V14.01,2013-02-22 12:35:00,
2013-02-22 05:40:00,26.9,24.4,30.05,NNE,14,2.0,3.0,90,0.00,,---,0.00,VWS V14.01,2013-02-22 12:40:00,
2013-02-22 05:45:00,26.9,24.4,30.06,NNE,14,3.0,4.0,90,0.00,,---,0.00,VWS V14.01,2013-02-22 12:45:00,
2013-02-22 05:50:00,26.9,24.4,30.06,NNE,15,2.0,2.0,90,0.00,,---,0.00,VWS V14.01,2013-02-22 12:50:00,
2013-02-22 05:55:00,27.0,24.5,30.06,NNE,17,2.0,4.0,90,0.00,,---,0.00,VWS V14.01,2013-02-22 12:55:00,
2013-02-22 06:00:00,26.9,24.4,30.06,NNE,18,2.0,3.0,90,0.00,,---,0.00,VWS V14.01,2013-02-22 13:00:00,
2013-02-22 06:05:00,26.9,24.4,30.06,NNE,19,3.0,3.0,90,0.00,,---,0.00,VWS V14.01,2013-02-22 13:05:00,
2013-02-22 06:10:00,26.7,24.2,30.06,NNE,19,1.0,2.0,90,0.00,,---,0.00,VWS V14.01,2013-02-22 13:10:00,
2013-02-22 06:15:00,26.6,24.1,30.07,NNE,18,0.0,0.0,90,0.00,,---,0.00,VWS V14.01,2013-02-22 13:15:00,
2013-02-22 06:20:00,26.5,24.0,30.07,NNE,19,1.0,2.0,90,0.00,,---,0.00,VWS V14.01,2013-02-22 13:20:00,
2013-02-22 06:24:00,26.2,23.7,30.07,NNE,19,0.0,0.0,90,0.00,,---,0.00,VWS V14.01,2013-02-22 13:24:00,
2013-02-22 06:25:00,26.3,23.8,30.07,NNE,19,0.0,2.0,90,0.00,,---,0.00,VWS V14.01,2013-02-22 13:25:00,
2013-02-22 06:29:00,26.0,23.2,30.07,NNE,18,2.0,2.0,89,0.00,,---,0.00,VWS V14.01,2013-02-22 13:29:00,
2013-02-22 06:30:00,26.1,23.3,30.07,NNE,19,2.0,2.0,89,0.00,,---,0.00,VWS V14.01,2013-02-22 13:30:00,
2013-02-22 06:34:00,25.8,23.3,30.08,NNE,19,1.0,3.0,90,0.00,,---,0.00,VWS V14.01,2013-02-22 13:34:00,
2013-02-22 06:35:00,25.9,23.4,30.07,NNE,18,1.0,2.0,90,0.00,,---,0.00,VWS V14.01,2013-02-22 13:35:00,
2013-02-22 06:39:00,25.9,23.4,30.08,NNE,19,0.0,1.0,90,0.00,,---,0.00,VWS V14.01,2013-02-22 13:39:00,
2013-02-22 06:40:00,25.9,23.4,30.07,NNE,19,1.0,3.0,90,0.00,,---,0.00,VWS V14.01,2013-02-22 13:40:00,
2013-02-22 06:44:00,25.9,23.4,30.08,NNE,19,1.0,2.0,90,0.00,,---,0.00,VWS V14.01,2013-02-22 13:44:00,
2013-02-22 06:45:00,26.0,23.5,30.08,NNE,19,1.0,1.0,90,0.00,,---,0.00,VWS V14.01,2013-02-22 13:45:00,
2013-02-22 06:49:00,25.8,23.3,30.08,NNE,19,0.0,0.0,90,0.00,,---,0.00,VWS V14.01,2013-02-22 13:49:00,
2013-02-22 06:50:00,25.9,23.4,30.08,NNE,19,0.0,2.0,90,0.00,,---,0.00,VWS V14.01,2013-02-22 13:50:00,
2013-02-22 06:54:00,25.8,23.3,30.08,NNE,18,0.0,0.0,90,0.00,,---,0.00,VWS V14.01,2013-02-22 13:54:00,
2013-02-22 06:55:00,25.8,23.3,30.08,NNE,19,0.0,0.0,90,0.00,,---,0.00,VWS V14.01,2013-02-22 13:55:00,
2013-02-22 06:59:00,25.7,23.2,30.09,NNE,19,0.0,0.0,90,0.00,,---,0.00,VWS V14.01,2013-02-22 13:59:00,
2013-02-22 07:00:00,25.7,23.2,30.09,NNE,18,0.0,0.0,90,0.00,,---,0.00,VWS V14.01,2013-02-22 14:00:00,
2013-02-22 07:04:00,25.7,23.2,30.09,NNE,20,2.0,3.0,90,0.00,,---,0.00,VWS V14.01,2013-02-22 14:04:00,
2013-02-22 07:05:00,25.7,23.2,30.08,NNE,20,2.0,3.0,90,0.00,,---,0.00,VWS V14.01,2013-02-22 14:05:00,
2013-02-22 07:09:00,25.8,23.3,30.09,NNE,19,0.0,0.0,90,0.00,,---,0.00,VWS V14.01,2013-02-22 14:09:00,
2013-02-22 07:10:00,25.8,23.3,30.09,NNE,20,0.0,3.0,90,0.00,,---,0.00,VWS V14.01,2013-02-22 14:10:00,
2013-02-22 07:14:00,25.8,23.3,30.09,NNE,20,0.0,0.0,90,0.00,,---,0.00,VWS V14.01,2013-02-22 14:14:00,
2013-02-22 07:15:00,25.8,23.3,30.09,NNE,19,0.0,0.0,90,0.00,,---,0.00,VWS V14.01,2013-02-22 14:15:00,
2013-02-22 07:19:00,26.1,23.6,30.10,NNE,20,0.0,0.0,90,0.00,,---,0.00,VWS V14.01,2013-02-22 14:19:00,
2013-02-22 07:20:00,26.0,23.5,30.10,NNE,20,0.0,0.0,90,0.00,,---,0.00,VWS V14.01,2013-02-22 14:20:00,
2013-02-22 07:24:00,26.7,24.2,30.10,NNE,20,0.0,0.0,90,0.00,,---,0.00,VWS V14.01,2013-02-22 14:24:00,
2013-02-22 07:25:00,26.5,24.0,30.10,NNE,20,0.0,0.0,90,0.00,,---,0.00,VWS V14.01,2013-02-22 14:25:00,
2013-02-22 07:29:00,27.5,25.0,30.11,NNE,20,0.0,0.0,90,0.00,,---,0.00,VWS V14.01,2013-02-22 14:29:00,
2013-02-22 07:30:00,27.2,24.7,30.10,NNE,20,0.0,0.0,90,0.00,,---,0.00,VWS V14.01,2013-02-22 14:30:00,
2013-02-22 07:34:00,28.4,25.9,30.11,NNE,19,0.0,0.0,90,0.00,,---,0.00,VWS V14.01,2013-02-22 14:34:00,
2013-02-22 07:35:00,28.2,25.6,30.11,NNE,20,0.0,0.0,90,0.00,,---,0.00,VWS V14.01,2013-02-22 14:35:00,
2013-02-22 07:39:00,29.4,26.8,30.11,NNE,20,0.0,0.0,90,0.00,,---,0.00,VWS V14.01,2013-02-22 14:39:00,
2013-02-22 07:40:00,29.1,26.5,30.11,NNE,20,0.0,0.0,90,0.00,,---,0.00,VWS V14.01,2013-02-22 14:40:00,
2013-02-22 07:44:00,30.3,27.7,30.11,NNE,20,0.0,0.0,90,0.00,,---,0.00,VWS V14.01,2013-02-22 14:44:00,
2013-02-22 07:45:00,30.0,27.4,30.11,NNE,19,0.0,0.0,90,0.00,,---,0.00,VWS V14.01,2013-02-22 14:45:00,
2013-02-22 07:49:00,31.2,28.6,30.11,NNE,20,0.0,0.0,90,0.00,,---,0.00,VWS V14.01,2013-02-22 14:49:00,
2013-02-22 07:50:00,30.9,28.3,30.12,NNE,19,0.0,0.0,90,0.00,,---,0.00,VWS V14.01,2013-02-22 14:50:00,
2013-02-22 07:54:00,32.1,29.5,30.12,NNE,20,0.0,0.0,90,0.00,,---,0.00,VWS V14.01,2013-02-22 14:54:00,
2013-02-22 07:55:00,31.9,29.0,30.12,NNE,20,0.0,0.0,89,0.00,,---,0.00,VWS V14.01,2013-02-22 14:55:00,
2013-02-22 07:59:00,33.1,30.2,30.12,NNE,19,0.0,0.0,89,0.01,,---,0.01,VWS V14.01,2013-02-22 14:59:00,
2013-02-22 08:00:00,32.9,30.0,30.12,NNE,20,0.0,0.0,89,0.01,,---,0.01,VWS V14.01,2013-02-22 15:00:00,
2013-02-22 08:04:00,33.9,30.7,30.12,NNE,19,0.0,0.0,88,0.01,,---,0.01,VWS V14.01,2013-02-22 15:04:00,
2013-02-22 08:05:00,33.6,30.4,30.12,NNE,20,0.0,0.0,88,0.01,,---,0.01,VWS V14.01,2013-02-22 15:05:00,
2013-02-22 08:09:00,34.4,30.6,30.13,NNE,20,0.0,0.0,86,0.01,,---,0.01,VWS V14.01,2013-02-22 15:09:00,
2013-02-22 08:10:00,34.4,30.9,30.13,NNE,19,0.0,0.0,87,0.01,,---,0.01,VWS V14.01,2013-02-22 15:10:00,
2013-02-22 08:14:00,34.5,30.2,30.13,NNE,20,0.0,0.0,84,0.01,,---,0.01,VWS V14.01,2013-02-22 15:14:00,
2013-02-22 08:15:00,34.4,30.4,30.13,NNE,19,0.0,0.0,85,0.01,,---,0.01,VWS V14.01,2013-02-22 15:15:00,
2013-02-22 08:19:00,34.8,30.5,30.13,NNE,20,0.0,0.0,84,0.01,,---,0.01,VWS V14.01,2013-02-22 15:19:00,
2013-02-22 08:20:00,34.7,30.4,30.13,NNE,19,0.0,0.0,84,0.01,,---,0.01,VWS V14.01,2013-02-22 15:20:00,
2013-02-22 08:24:00,35.5,31.1,30.13,NNE,20,0.0,0.0,84,0.01,,---,0.01,VWS V14.01,2013-02-22 15:24:00,
2013-02-22 08:25:00,35.3,30.7,30.13,NNE,19,0.0,0.0,83,0.01,,---,0.01,VWS V14.01,2013-02-22 15:25:00,
2013-02-22 08:29:00,36.8,31.8,30.13,NNE,20,0.0,0.0,82,0.01,,---,0.01,VWS V14.01,2013-02-22 15:29:00,
2013-02-22 08:30:00,36.5,31.8,30.13,NNE,19,0.0,0.0,83,0.01,,---,0.01,VWS V14.01,2013-02-22 15:30:00,
2013-02-22 08:34:00,37.2,31.3,30.13,NNE,20,0.0,0.0,79,0.01,,---,0.01,VWS V14.01,2013-02-22 15:34:00,
2013-02-22 08:35:00,37.3,31.7,30.13,NNE,20,0.0,0.0,80,0.01,,---,0.01,VWS V14.01,2013-02-22 15:35:00,
2013-02-22 08:39:00,37.1,31.2,30.14,NNE,20,0.0,0.0,79,0.01,,---,0.01,VWS V14.01,2013-02-22 15:39:00,
2013-02-22 08:40:00,37.1,31.2,30.13,NNE,20,0.0,0.0,79,0.01,,---,0.01,VWS V14.01,2013-02-22 15:40:00,
2013-02-22 08:44:00,37.3,31.7,30.14,NNE,32,0.0,0.0,80,0.01,,---,0.01,VWS V14.01,2013-02-22 15:44:00,
2013-02-22 08:45:00,37.2,31.6,30.14,NNE,20,0.0,0.0,80,0.01,,---,0.01,VWS V14.01,2013-02-22 15:45:00,
2013-02-22 08:49:00,37.7,32.1,30.14,NNE,32,0.0,0.0,80,0.01,,---,0.01,VWS V14.01,2013-02-22 15:49:00,
2013-02-22 08:50:00,37.6,31.7,30.14,NNE,32,0.0,0.0,79,0.01,,---,0.01,VWS V14.01,2013-02-22 15:50:00,
2013-02-22 08:54:00,37.7,31.5,30.14,NNE,32,0.0,0.0,78,0.01,,---,0.01,VWS V14.01,2013-02-22 15:54:00,
2013-02-22 08:55:00,37.8,31.6,30.14,NNE,32,0.0,1.0,78,0.01,,---,0.01,VWS V14.01,2013-02-22 15:55:00,
2013-02-22 08:59:00,37.7,31.8,30.14,NNE,32,0.0,0.0,79,0.00,,---,0.01,VWS V14.01,2013-02-22 15:59:00,
2013-02-22 09:00:00,37.6,31.4,30.14,NNE,32,0.0,0.0,78,0.01,,---,0.01,VWS V14.01,2013-02-22 16:00:00,
2013-02-22 09:04:00,37.8,31.6,30.14,NNE,32,0.0,0.0,78,0.00,,---,0.01,VWS V14.01,2013-02-22 16:04:00,
2013-02-22 09:05:00,37.8,31.9,30.14,NNE,32,0.0,0.0,79,0.00,,---,0.01,VWS V14.01,2013-02-22 16:05:00,
2013-02-22 09:09:00,37.5,31.6,30.14,NNE,19,0.0,0.0,79,0.00,,---,0.01,VWS V14.01,2013-02-22 16:09:00,
2013-02-22 09:10:00,37.5,31.3,30.15,NNE,20,0.0,4.0,78,0.00,,---,0.01,VWS V14.01,2013-02-22 16:10:00,
2013-02-22 09:14:00,37.3,31.4,30.15,NNE,20,0.0,3.0,79,0.00,,---,0.01,VWS V14.01,2013-02-22 16:14:00,
2013-02-22 09:15:00,37.4,31.5,30.15,NNE,20,3.0,4.0,79,0.00,,---,0.01,VWS V14.01,2013-02-22 16:15:00,
2013-02-22 09:19:00,37.4,31.5,30.15,NNE,20,0.0,2.0,79,0.00,,---,0.01,VWS V14.01,2013-02-22 16:19:00,
2013-02-22 09:20:00,37.4,31.5,30.15,NNE,20,0.0,3.0,79,0.00,,---,0.01,VWS V14.01,2013-02-22 16:20:00,
2013-02-22 09:24:00,37.5,31.6,30.14,NNE,20,0.0,0.0,79,0.00,,---,0.01,VWS V14.01,2013-02-22 16:24:00,
2013-02-22 09:25:00,37.5,31.6,30.15,NNE,20,0.0,2.0,79,0.00,,---,0.01,VWS V14.01,2013-02-22 16:25:00,
2013-02-22 09:29:00,37.9,31.7,30.14,NNE,20,0.0,1.0,78,0.00,,---,0.01,VWS V14.01,2013-02-22 16:29:00,
2013-02-22 09:30:00,37.9,31.7,30.14,NNE,20,0.0,1.0,78,0.00,,---,0.01,VWS V14.01,2013-02-22 16:30:00,
2013-02-22 09:34:00,38.9,32.3,30.14,NNE,19,0.0,0.0,77,0.00,,---,0.01,VWS V14.01,2013-02-22 16:34:00,
2013-02-22 09:35:00,38.6,32.3,30.14,NNE,20,0.0,1.0,78,0.00,,---,0.01,VWS V14.01,2013-02-22 16:35:00,
2013-02-22 09:39:00,39.6,32.3,30.14,NNE,20,0.0,1.0,75,0.00,,---,0.01,VWS V14.01,2013-02-22 16:39:00,
2013-02-22 09:40:00,39.5,32.6,30.14,NNE,19,1.0,1.0,76,0.00,,---,0.01,VWS V14.01,2013-02-22 16:40:00,
2013-02-22 09:44:00,39.5,32.2,30.13,NNW,348,0.0,0.0,75,0.00,,---,0.01,VWS V14.01,2013-02-22 16:44:00,
2013-02-22 09:45:00,39.6,32.0,30.14,NNW,348,0.0,4.0,74,0.00,,---,0.01,VWS V14.01,2013-02-22 16:45:00,
2013-02-22 09:49:00,39.5,31.9,30.13,NNW,348,2.0,2.0,74,0.00,,---,0.01,VWS V14.01,2013-02-22 16:49:00,
2013-02-22 09:50:00,39.5,31.9,30.13,NNW,348,0.0,3.0,74,0.00,,---,0.01,VWS V14.01,2013-02-22 16:50:00,
2013-02-22 09:54:00,39.9,32.0,30.13,North,349,0.0,1.0,73,0.00,,---,0.01,VWS V14.01,2013-02-22 16:54:00,
2013-02-22 09:55:00,39.7,31.8,30.13,NNW,348,0.0,2.0,73,0.00,,---,0.01,VWS V14.01,2013-02-22 16:55:00,
2013-02-22 09:59:00,41.0,32.0,30.13,North,350,0.0,0.0,70,0.00,,---,0.01,VWS V14.01,2013-02-22 16:59:00,
2013-02-22 10:00:00,40.7,32.0,30.13,North,349,0.0,1.0,71,0.00,,---,0.01,VWS V14.01,2013-02-22 17:00:00,
2013-02-22 10:04:00,41.8,31.3,30.13,North,350,0.0,4.0,66,0.00,,---,0.01,VWS V14.01,2013-02-22 17:04:00,
2013-02-22 10:05:00,41.8,31.3,30.13,North,350,3.0,3.0,66,0.00,,---,0.01,VWS V14.01,2013-02-22 17:05:00,
2013-02-22 10:09:00,41.2,30.7,30.13,WNW,296,4.0,6.0,66,0.00,,---,0.01,VWS V14.01,2013-02-22 17:09:00,
2013-02-22 10:10:00,41.3,30.4,30.13,SSW,209,1.0,5.0,65,0.00,,---,0.01,VWS V14.01,2013-02-22 17:10:00,
2013-02-22 10:14:00,40.9,30.4,30.13,WNW,290,4.0,5.0,66,0.00,,---,0.01,VWS V14.01,2013-02-22 17:14:00,
2013-02-22 10:15:00,40.8,29.6,30.13,WNW,290,0.0,6.0,64,0.00,,---,0.01,VWS V14.01,2013-02-22 17:15:00,
2013-02-22 10:19:00,40.4,28.8,30.14,WNW,284,0.0,3.0,63,0.00,,---,0.01,VWS V14.01,2013-02-22 17:19:00,
2013-02-22 10:20:00,40.6,29.4,30.13,WNW,290,0.0,5.0,64,0.00,,---,0.01,VWS V14.01,2013-02-22 17:20:00,
2013-02-22 10:24:00,40.6,30.1,30.13,WNW,293,4.0,6.0,66,0.00,,---,0.01,VWS V14.01,2013-02-22 17:24:00,
2013-02-22 10:25:00,40.5,30.0,30.14,WNW,295,5.0,6.0,66,0.00,,---,0.01,VWS V14.01,2013-02-22 17:25:00,
2013-02-22 10:29:00,40.9,30.8,30.14,WNW,295,0.0,6.0,67,0.00,,---,0.01,VWS V14.01,2013-02-22 17:29:00,
2013-02-22 10:30:00,40.8,30.3,30.13,WNW,293,0.0,6.0,66,0.00,,---,0.01,VWS V14.01,2013-02-22 17:30:00,
2013-02-22 10:34:00,41.1,29.9,30.13,WNW,303,0.0,1.0,64,0.00,,---,0.01,VWS V14.01,2013-02-22 17:34:00,
2013-02-22 10:35:00,41.1,29.9,30.14,WNW,303,1.0,6.0,64,0.00,,---,0.01,VWS V14.01,2013-02-22 17:35:00,
2013-02-22 10:39:00,41.3,30.1,30.13,NW,313,4.0,4.0,64,0.00,,---,0.01,VWS V14.01,2013-02-22 17:39:00,
2013-02-22 10:40:00,41.3,30.1,30.14,NW,313,3.0,5.0,64,0.00,,---,0.01,VWS V14.01,2013-02-22 17:40:00,
2013-02-22 10:44:00,41.4,29.4,30.14,NW,313,0.0,0.0,62,0.00,,---,0.01,VWS V14.01,2013-02-22 17:44:00,
2013-02-22 10:45:00,41.3,29.7,30.14,NW,313,0.0,4.0,63,0.00,,---,0.01,VWS V14.01,2013-02-22 17:45:00,
2013-02-22 10:49:00,41.8,30.1,30.14,NW,313,0.0,2.0,63,0.00,,---,0.01,VWS V14.01,2013-02-22 17:49:00,
2013-02-22 10:50:00,41.8,29.8,30.14,NW,313,2.0,4.0,62,0.00,,---,0.01,VWS V14.01,2013-02-22 17:50:00,
2013-02-22 10:54:00,42.2,30.5,30.14,WNW,302,4.0,6.0,63,0.00,,---,0.01,VWS V14.01,2013-02-22 17:54:00,
2013-02-22 10:55:00,42.2,30.5,30.14,WNW,298,6.0,7.0,63,0.00,,---,0.01,VWS V14.01,2013-02-22 17:55:00,
2013-02-22 10:59:00,42.2,29.7,30.14,NW,304,6.0,7.0,61,0.00,,---,0.01,VWS V14.01,2013-02-22 17:59:00,
2013-02-22 11:00:00,42.2,30.5,30.14,WNW,302,0.0,7.0,63,0.00,,---,0.01,VWS V14.01,2013-02-22 18:00:00,
2013-02-22 11:04:00,42.4,29.9,30.14,WNW,303,2.0,5.0,61,0.00,,---,0.01,VWS V14.01,2013-02-22 18:04:00,
2013-02-22 11:05:00,42.3,29.8,30.14,WNW,300,0.0,7.0,61,0.00,,---,0.01,VWS V14.01,2013-02-22 18:05:00,
2013-02-22 11:09:00,42.6,31.7,30.14,West,277,4.0,5.0,65,0.00,,---,0.01,VWS V14.01,2013-02-22 18:09:00,
2013-02-22 11:10:00,42.5,30.8,30.14,WNW,293,0.0,9.0,63,0.00,,---,0.01,VWS V14.01,2013-02-22 18:10:00,
2013-02-22 11:14:00,42.3,29.8,30.14,WSW,246,0.0,3.0,61,0.00,,---,0.01,VWS V14.01,2013-02-22 18:14:00,
2013-02-22 11:15:00,42.4,30.3,30.14,WSW,248,3.0,6.0,62,0.00,,---,0.01,VWS V14.01,2013-02-22 18:15:00,
2013-02-22 11:19:00,42.4,30.7,30.14,WNW,291,3.0,3.0,63,0.00,,---,0.01,VWS V14.01,2013-02-22 18:19:00,
2013-02-22 11:20:00,42.3,29.8,30.14,WNW,292,0.0,4.0,61,0.00,,---,0.01,VWS V14.01,2013-02-22 18:20:00,
2013-02-22 11:24:00,42.9,29.6,30.14,WNW,292,7.0,7.0,59,0.00,,---,0.01,VWS V14.01,2013-02-22 18:24:00,
2013-02-22 11:25:00,42.8,30.3,30.15,West,269,3.0,10.0,61,0.00,,---,0.01,VWS V14.01,2013-02-22 18:25:00,
2013-02-22 11:29:00,43.0,30.1,30.14,WNW,296,2.0,2.0,60,0.00,,---,0.01,VWS V14.01,2013-02-22 18:29:00,
2013-02-22 11:30:00,42.9,29.6,30.14,WNW,297,2.0,7.0,59,0.00,,---,0.01,VWS V14.01,2013-02-22 18:30:00,
2013-02-22 11:34:00,43.2,29.9,30.14,WNW,285,0.0,0.0,59,0.00,,---,0.01,VWS V14.01,2013-02-22 18:34:00,
2013-02-22 11:35:00,43.3,30.0,30.14,WNW,285,0.0,9.0,59,0.00,,---,0.01,VWS V14.01,2013-02-22 18:35:00,
2013-02-22 11:39:00,43.2,29.9,30.14,SW,236,2.0,6.0,59,0.00,,---,0.01,VWS V14.01,2013-02-22 18:39:00,
2013-02-22 11:40:00,43.2,30.7,30.14,West,263,6.0,10.0,61,0.00,,---,0.01,VWS V14.01,2013-02-22 18:40:00,
2013-02-22 11:44:00,43.2,29.4,30.14,West,275,0.0,1.0,58,0.00,,---,0.01,VWS V14.01,2013-02-22 18:44:00,
2013-02-22 11:45:00,43.2,29.0,30.14,West,275,1.0,7.0,57,0.00,,---,0.01,VWS V14.01,2013-02-22 18:45:00,
2013-02-22 11:49:00,43.6,31.5,30.14,WNW,288,5.0,8.0,62,0.00,,---,0.01,VWS V14.01,2013-02-22 18:49:00,
2013-02-22 11:50:00,43.4,30.5,30.14,WSW,240,7.0,7.0,60,0.00,,---,0.01,VWS V14.01,2013-02-22 18:50:00,
2013-02-22 11:54:00,44.2,31.6,30.13,NW,309,2.0,7.0,61,0.00,,---,0.01,VWS V14.01,2013-02-22 18:54:00,
2013-02-22 11:55:00,44.1,31.1,30.13,NW,325,6.0,8.0,60,0.00,,---,0.01,VWS V14.01,2013-02-22 18:55:00,
2013-02-22 11:59:00,44.2,32.0,30.13,NNW,335,0.0,0.0,62,0.00,,---,0.01,VWS V14.01,2013-02-22 18:59:00,
2013-02-22 12:00:00,44.2,31.6,30.13,NNW,335,0.0,7.0,61,0.00,,---,0.01,VWS V14.01,2013-02-22 19:00:00,
2013-02-22 12:04:00,44.4,31.0,30.13,West,265,0.0,7.0,59,0.00,,---,0.01,VWS V14.01,2013-02-22 19:04:00,
2013-02-22 12:05:00,44.6,31.2,30.13,West,263,7.0,10.0,59,0.00,,---,0.01,VWS V14.01,2013-02-22 19:05:00,
2013-02-22 12:09:00,44.8,33.0,30.13,WNW,299,0.0,7.0,63,0.00,,---,0.01,VWS V14.01,2013-02-22 19:09:00,
2013-02-22 12:10:00,44.6,32.8,30.13,WNW,286,6.0,11.0,63,0.00,,---,0.01,VWS V14.01,2013-02-22 19:10:00,
2013-02-22 12:14:00,44.9,32.7,30.13,West,275,9.0,9.0,62,0.00,,---,0.01,VWS V14.01,2013-02-22 19:14:00,
2013-02-22 12:15:00,44.9,32.3,30.13,West,272,6.0,8.0,61,0.00,,---,0.01,VWS V14.01,2013-02-22 19:15:00,
2013-02-22 12:19:00,44.7,31.7,30.13,NNW,327,3.0,6.0,60,0.00,,---,0.01,VWS V14.01,2013-02-22 19:19:00,
2013-02-22 12:20:00,44.8,31.8,30.13,NNW,334,6.0,11.0,60,0.00,,---,0.01,VWS V14.01,2013-02-22 19:20:00,
2013-02-22 12:24:00,44.5,31.1,30.13,West,265,0.0,2.0,59,0.00,,---,0.01,VWS V14.01,2013-02-22 19:24:00,
2013-02-22 12:25:00,44.4,31.0,30.12,West,265,2.0,11.0,59,0.00,,---,0.01,VWS V14.01,2013-02-22 19:25:00,
2013-02-22 12:29:00,45.0,32.4,30.12,WNW,294,6.0,10.0,61,0.00,,---,0.01,VWS V14.01,2013-02-22 19:29:00,
2013-02-22 12:30:00,45.0,32.0,30.12,WNW,296,5.0,12.0,60,0.00,,---,0.01,VWS V14.01,2013-02-22 19:30:00,
2013-02-22 12:34:00,44.3,31.3,30.12,West,267,1.0,4.0,60,0.00,,---,0.01,VWS V14.01,2013-02-22 19:34:00,
2013-02-22 12:35:00,44.4,31.4,30.12,West,267,4.0,10.0,60,0.00,,---,0.01,VWS V14.01,2013-02-22 19:35:00,
2013-02-22 12:39:00,44.6,32.4,30.12,West,261,0.0,5.0,62,0.00,,---,0.01,VWS V14.01,2013-02-22 19:39:00,
2013-02-22 12:40:00,44.5,31.1,30.12,WSW,258,0.0,7.0,59,0.00,,---,0.01,VWS V14.01,2013-02-22 19:40:00,
2013-02-22 12:44:00,45.0,32.0,30.12,NW,315,6.0,10.0,60,0.00,,---,0.01,VWS V14.01,2013-02-22 19:44:00,
2013-02-22 12:45:00,45.0,32.0,30.12,WNW,298,7.0,11.0,60,0.00,,---,0.01,VWS V14.01,2013-02-22 19:45:00,
2013-02-22 12:49:00,45.0,32.0,30.11,NW,309,2.0,5.0,60,0.00,,---,0.01,VWS V14.01,2013-02-22 19:49:00,
2013-02-22 12:50:00,45.0,32.0,30.11,NW,309,3.0,10.0,60,0.00,,---,0.01,VWS V14.01,2013-02-22 19:50:00,
2013-02-22 12:54:00,45.1,31.6,30.11,NW,304,6.0,10.0,59,0.00,,---,0.01,VWS V14.01,2013-02-22 19:54:00,
2013-02-22 12:55:00,45.0,32.4,30.11,NW,311,10.0,11.0,61,0.00,,---,0.01,VWS V14.01,2013-02-22 19:55:00,
2013-02-22 12:59:00,45.8,32.7,30.11,WNW,282,10.0,12.0,60,0.00,,---,0.01,VWS V14.01,2013-02-22 19:59:00,
2013-02-22 13:00:00,45.8,32.7,30.10,West,276,11.0,12.0,60,0.00,,---,0.01,VWS V14.01,2013-02-22 20:00:00,
2013-02-22 13:04:00,45.2,30.9,30.10,West,271,2.0,5.0,57,0.00,,---,0.01,VWS V14.01,2013-02-22 20:04:00,
2013-02-22 13:05:00,45.4,31.5,30.10,West,281,5.0,12.0,58,0.00,,---,0.01,VWS V14.01,2013-02-22 20:05:00,
2013-02-22 13:09:00,46.0,32.1,30.10,West,266,6.0,9.0,58,0.00,,---,0.01,VWS V14.01,2013-02-22 20:09:00,
2013-02-22 13:10:00,45.9,32.4,30.10,West,276,8.0,10.0,59,0.00,,---,0.01,VWS V14.01,2013-02-22 20:10:00,
2013-02-22 13:14:00,46.2,31.4,30.10,WNW,301,6.0,6.0,56,0.00,,---,0.01,VWS V14.01,2013-02-22 20:14:00,
2013-02-22 13:15:00,46.1,31.3,30.10,NNW,329,3.0,9.0,56,0.00,,---,0.01,VWS V14.01,2013-02-22 20:15:00,
2013-02-22 13:19:00,46.6,30.4,30.10,WNW,284,9.0,11.0,53,0.00,,---,0.01,VWS V14.01,2013-02-22 20:19:00,
2013-02-22 13:20:00,46.5,30.8,30.10,West,270,7.0,10.0,54,0.00,,---,0.01,VWS V14.01,2013-02-22 20:20:00,
2013-02-22 13:24:00,46.4,29.8,30.09,West,281,3.0,11.0,52,0.00,,---,0.01,VWS V14.01,2013-02-22 20:24:00,
2013-02-22 13:25:00,46.5,29.8,30.09,WNW,292,11.0,11.0,52,0.00,,---,0.01,VWS V14.01,2013-02-22 20:25:00,
2013-02-22 13:29:00,47.0,30.3,30.09,West,269,10.0,11.0,52,0.00,,---,0.01,VWS V14.01,2013-02-22 20:29:00,
2013-02-22 13:30:00,46.9,30.2,30.09,WNW,290,7.0,16.0,52,0.00,,---,0.01,VWS V14.01,2013-02-22 20:30:00,
2013-02-22 13:34:00,46.9,30.2,30.09,WNW,290,3.0,9.0,52,0.00,,---,0.01,VWS V14.01,2013-02-22 20:34:00,
2013-02-22 13:35:00,46.9,29.7,30.09,NW,312,6.0,13.0,51,0.00,,---,0.01,VWS V14.01,2013-02-22 20:35:00,
2013-02-22 13:39:00,47.1,29.9,30.09,West,281,1.0,4.0,51,0.00,,---,0.01,VWS V14.01,2013-02-22 20:39:00,
2013-02-22 13:40:00,47.1,30.4,30.09,WNW,282,4.0,13.0,52,0.00,,---,0.01,VWS V14.01,2013-02-22 20:40:00,
2013-02-22 13:44:00,47.0,30.3,30.09,NW,304,7.0,7.0,52,0.00,,---,0.01,VWS V14.01,2013-02-22 20:44:00,
2013-02-22 13:45:00,47.0,29.8,30.09,WNW,297,0.0,9.0,51,0.00,,---,0.01,VWS V14.01,2013-02-22 20:45:00,
2013-02-22 13:49:00,47.5,30.3,30.09,WNW,288,6.0,11.0,51,0.00,,---,0.01,VWS V14.01,2013-02-22 20:49:00,
2013-02-22 13:50:00,47.6,30.4,30.09,WNW,287,11.0,16.0,51,0.00,,---,0.01,VWS V14.01,2013-02-22 20:50:00,
2013-02-22 13:54:00,47.4,30.7,30.09,WNW,301,9.0,13.0,52,0.00,,---,0.01,VWS V14.01,2013-02-22 20:54:00,
2013-02-22 13:55:00,47.4,30.7,30.09,WNW,290,6.0,13.0,52,0.00,,---,0.01,VWS V14.01,2013-02-22 20:55:00,
2013-02-22 13:59:00,47.8,30.6,30.09,NNW,327,7.0,12.0,51,0.00,,---,0.01,VWS V14.01,2013-02-22 20:59:00,
2013-02-22 14:00:00,47.8,30.6,30.09,NW,319,5.0,13.0,51,0.00,,---,0.01,VWS V14.01,2013-02-22 21:00:00,
2013-02-22 14:04:00,47.9,30.7,30.09,WNW,283,10.0,12.0,51,0.00,,---,0.01,VWS V14.01,2013-02-22 21:04:00,
2013-02-22 14:05:00,48.0,30.8,30.09,WNW,288,12.0,15.0,51,0.00,,---,0.01,VWS V14.01,2013-02-22 21:05:00,
2013-02-22 14:09:00,47.6,29.9,30.09,WNW,285,10.0,11.0,50,0.00,,---,0.01,VWS V14.01,2013-02-22 21:09:00,
2013-02-22 14:10:00,47.7,30.0,30.09,West,280,7.0,15.0,50,0.00,,---,0.01,VWS V14.01,2013-02-22 21:10:00,
2013-02-22 14:14:00,47.2,30.0,30.09,WNW,296,8.0,10.0,51,0.00,,---,0.01,VWS V14.01,2013-02-22 21:14:00,
2013-02-22 14:15:00,47.3,30.1,30.09,NNW,329,10.0,12.0,51,0.00,,---,0.01,VWS V14.01,2013-02-22 21:15:00,
2013-02-22 14:19:00,47.5,30.8,30.08,West,276,6.0,8.0,52,0.00,,---,0.01,VWS V14.01,2013-02-22 21:19:00,
2013-02-22 14:20:00,47.6,30.4,30.09,West,262,5.0,14.0,51,0.00,,---,0.01,VWS V14.01,2013-02-22 21:20:00,
2013-02-22 14:24:00,48.2,30.5,30.08,NW,324,5.0,7.0,50,0.00,,---,0.01,VWS V14.01,2013-02-22 21:24:00,
2013-02-22 14:25:00,48.2,30.9,30.09,NW,317,6.0,14.0,51,0.00,,---,0.01,VWS V14.01,2013-02-22 21:25:00,
2013-02-22 14:29:00,47.9,30.2,30.08,NW,308,2.0,5.0,50,0.00,,---,0.01,VWS V14.01,2013-02-22 21:29:00,
2013-02-22 14:30:00,47.9,30.2,30.08,NW,321,5.0,13.0,50,0.00,,---,0.01,VWS V14.01,2013-02-22 21:30:00,
2013-02-22 14:34:00,47.5,30.3,30.08,WNW,295,6.0,9.0,51,0.00,,---,0.01,VWS V14.01,2013-02-22 21:34:00,
2013-02-22 14:35:00,47.6,29.9,30.08,West,265,4.0,14.0,50,0.00,,---,0.01,VWS V14.01,2013-02-22 21:35:00,
2013-02-22 14:39:00,47.5,30.3,30.08,West,279,11.0,11.0,51,0.00,,---,0.01,VWS V14.01,2013-02-22 21:39:00,
2013-02-22 14:40:00,47.5,30.3,30.08,NW,325,6.0,10.0,51,0.00,,---,0.01,VWS V14.01,2013-02-22 21:40:00,
2013-02-22 14:44:00,47.7,30.5,30.07,NW,319,4.0,6.0,51,0.00,,---,0.01,VWS V14.01,2013-02-22 21:44:00,
2013-02-22 14:45:00,47.7,30.5,30.07,NW,319,5.0,13.0,51,0.00,,---,0.01,VWS V14.01,2013-02-22 21:45:00,
2013-02-22 14:49:00,48.2,31.9,30.07,WNW,284,11.0,15.0,53,0.00,,---,0.01,VWS V14.01,2013-02-22 21:49:00,
2013-02-22 14:50:00,48.1,30.8,30.07,WNW,299,7.0,11.0,51,0.00,,---,0.01,VWS V14.01,2013-02-22 21:50:00,
2013-02-22 14:54:00,48.3,31.5,30.08,NW,304,7.0,11.0,52,0.00,,---,0.01,VWS V14.01,2013-02-22 21:54:00,
2013-02-22 14:55:00,48.2,30.9,30.08,WNW,298,11.0,15.0,51,0.00,,---,0.01,VWS V14.01,2013-02-22 21:55:00,
2013-02-22 14:59:00,48.2,31.4,30.07,WNW,283,10.0,18.0,52,0.00,,---,0.01,VWS V14.01,2013-02-22 21:59:00,
2013-02-22 15:00:00,48.1,31.8,30.07,West,273,13.0,17.0,53,0.00,,---,0.01,VWS V14.01,2013-02-22 22:00:00,
2013-02-22 15:04:00,48.1,30.8,30.07,WNW,302,11.0,16.0,51,0.00,,---,0.01,VWS V14.01,2013-02-22 22:04:00,
2013-02-22 15:05:00,48.1,30.8,30.07,WNW,296,13.0,18.0,51,0.00,,---,0.01,VWS V14.01,2013-02-22 22:05:00,
2013-02-22 15:09:00,47.8,31.0,30.07,West,280,15.0,17.0,52,0.00,,---,0.01,VWS V14.01,2013-02-22 22:09:00,
2013-02-22 15:10:00,47.8,31.0,30.07,West,279,13.0,17.0,52,0.00,,---,0.01,VWS V14.01,2013-02-22 22:10:00,
2013-02-22 15:14:00,47.6,30.4,30.08,WNW,282,12.0,15.0,51,0.00,,---,0.01,VWS V14.01,2013-02-22 22:14:00,
2013-02-22 15:15:00,47.6,30.4,30.07,West,279,14.0,17.0,51,0.00,,---,0.01,VWS V14.01,2013-02-22 22:15:00,
2013-02-22 15:19:00,48.1,30.4,30.08,WNW,288,10.0,16.0,50,0.00,,---,0.01,VWS V14.01,2013-02-22 22:19:00,
2013-02-22 15:20:00,48.1,30.8,30.08,NW,311,11.0,16.0,51,0.00,,---,0.01,VWS V14.01,2013-02-22 22:20:00,
2013-02-22 15:24:00,47.9,30.2,30.08,WNW,297,12.0,13.0,50,0.00,,---,0.01,VWS V14.01,2013-02-22 22:24:00,
2013-02-22 15:25:00,47.9,30.2,30.08,NNW,327,11.0,19.0,50,0.00,,---,0.01,VWS V14.01,2013-02-22 22:25:00,
2013-02-22 15:29:00,47.8,30.1,30.08,WNW,296,14.0,16.0,50,0.00,,---,0.01,VWS V14.01,2013-02-22 22:29:00,
2013-02-22 15:30:00,47.8,30.1,30.08,WNW,302,9.0,23.0,50,0.00,,---,0.01,VWS V14.01,2013-02-22 22:30:00,
2013-02-22 15:34:00,48.2,30.0,30.08,WNW,294,12.0,16.0,49,0.00,,---,0.01,VWS V14.01,2013-02-22 22:34:00,
2013-02-22 15:35:00,48.2,30.5,30.08,WNW,287,12.0,16.0,50,0.00,,---,0.01,VWS V14.01,2013-02-22 22:35:00,
2013-02-22 15:39:00,47.8,29.6,30.08,NW,306,9.0,16.0,49,0.00,,---,0.01,VWS V14.01,2013-02-22 22:39:00,
2013-02-22 15:40:00,47.8,29.6,30.08,WNW,292,11.0,19.0,49,0.00,,---,0.01,VWS V14.01,2013-02-22 22:40:00,
2013-02-22 15:44:00,47.7,30.0,30.08,NW,320,16.0,17.0,50,0.00,,---,0.01,VWS V14.01,2013-02-22 22:44:00,
2013-02-22 15:45:00,47.7,30.0,30.08,NNW,335,12.0,20.0,50,0.00,,---,0.01,VWS V14.01,2013-02-22 22:45:00,
2013-02-22 15:49:00,47.5,29.8,30.08,WNW,289,18.0,18.0,50,0.00,,---,0.01,VWS V14.01,2013-02-22 22:49:00,
2013-02-22 15:50:00,47.6,29.9,30.09,WNW,298,18.0,21.0,50,0.00,,---,0.01,VWS V14.01,2013-02-22 22:50:00,
2013-02-22 15:54:00,47.1,28.9,30.08,NW,315,11.0,13.0,49,0.00,,---,0.01,VWS V14.01,2013-02-22 22:54:00,
2013-02-22 15:55:00,47.1,28.9,30.08,WNW,294,12.0,19.0,49,0.00,,---,0.01,VWS V14.01,2013-02-22 22:55:00,
2013-02-22 15:59:00,47.5,29.8,30.08,WNW,300,12.0,13.0,50,0.00,,---,0.01,VWS V14.01,2013-02-22 22:59:00,
2013-02-22 16:00:00,47.5,29.8,30.08,NW,306,13.0,16.0,50,0.00,,---,0.01,VWS V14.01,2013-02-22 23:00:00,
2013-02-22 16:04:00,47.2,28.5,30.08,NNW,327,12.0,15.0,48,0.00,,---,0.01,VWS V14.01,2013-02-22 23:04:00,
2013-02-22 16:05:00,47.2,28.0,30.08,NW,323,12.0,17.0,47,0.00,,---,0.01,VWS V14.01,2013-02-22 23:05:00,
2013-02-22 16:09:00,47.2,29.0,30.08,WNW,295,13.0,13.0,49,0.00,,---,0.01,VWS V14.01,2013-02-22 23:09:00,
2013-02-22 16:10:00,47.2,28.5,30.08,WNW,294,7.0,17.0,48,0.00,,---,0.01,VWS V14.01,2013-02-22 23:10:00,
2013-02-22 16:14:00,47.1,28.9,30.08,NW,305,12.0,14.0,49,0.00,,---,0.01,VWS V14.01,2013-02-22 23:14:00,
2013-02-22 16:15:00,47.1,28.9,30.08,WNW,296,12.0,18.0,49,0.00,,---,0.01,VWS V14.01,2013-02-22 23:15:00,
2013-02-22 16:19:00,46.9,28.8,30.08,WNW,300,14.0,15.0,49,0.00,,---,0.01,VWS V14.01,2013-02-22 23:19:00,
2013-02-22 16:20:00,46.9,28.8,30.08,WNW,296,15.0,18.0,49,0.00,,---,0.01,VWS V14.01,2013-02-22 23:20:00,
2013-02-22 16:24:00,46.8,28.2,30.08,WNW,300,12.0,16.0,48,0.00,,---,0.01,VWS V14.01,2013-02-22 23:24:00,
2013-02-22 16:25:00,46.9,28.2,30.08,WNW,288,11.0,18.0,48,0.00,,---,0.01,VWS V14.01,2013-02-22 23:25:00,
2013-02-22 16:29:00,46.8,27.6,30.08,West,260,10.0,13.0,47,0.00,,---,0.01,VWS V14.01,2013-02-22 23:29:00,
2013-02-22 16:30:00,46.8,28.2,30.08,NW,309,11.0,16.0,48,0.00,,---,0.01,VWS V14.01,2013-02-22 23:30:00,
2013-02-22 16:34:00,46.7,27.0,30.08,West,276,14.0,16.0,46,0.00,,---,0.01,VWS V14.01,2013-02-22 23:34:00,
2013-02-22 16:35:00,46.7,28.6,30.08,NW,317,15.0,17.0,49,0.00,,---,0.01,VWS V14.01,2013-02-22 23:35:00,
2013-02-22 16:39:00,46.6,27.5,30.08,WNW,300,13.0,17.0,47,0.00,,---,0.01,VWS V14.01,2013-02-22 23:39:00,
2013-02-22 16:40:00,46.6,26.9,30.08,WNW,288,12.0,19.0,46,0.00,,---,0.01,VWS V14.01,2013-02-22 23:40:00,
2013-02-22 16:44:00,46.5,28.4,30.08,WNW,291,9.0,13.0,49,0.00,,---,0.01,VWS V14.01,2013-02-22 23:44:00,
2013-02-22 16:45:00,46.5,28.4,30.08,WNW,289,13.0,17.0,49,0.00,,---,0.01,VWS V14.01,2013-02-22 23:45:00,
2013-02-22 16:49:00,46.5,27.9,30.08,WNW,296,9.0,11.0,48,0.00,,---,0.01,VWS V14.01,2013-02-22 23:49:00,
2013-02-22 16:50:00,46.6,28.0,30.08,West,276,6.0,13.0,48,0.00,,---,0.01,VWS V14.01,2013-02-22 23:50:00,
2013-02-22 16:54:00,46.5,27.4,30.08,WNW,283,14.0,14.0,47,0.00,,---,0.01,VWS V14.01,2013-02-22 23:54:00,
2013-02-22 16:55:00,46.5,27.4,30.08,West,264,11.0,15.0,47,0.00,,---,0.01,VWS V14.01,2013-02-22 23:55:00,
2013-02-22 16:59:00,46.5,27.9,30.07,WNW,287,10.0,15.0,48,0.00,,---,0.01,VWS V14.01,2013-02-22 23:59:00,
2013-02-22 17:00:00,46.5,28.4,30.07,WNW,289,12.0,16.0,49,0.00,,---,0.01,VWS V14.01,2013-02-23 00:00:00,
2013-02-22 17:04:00,46.4,26.8,30.07,WNW,282,12.0,14.0,46,0.00,,---,0.01,VWS V14.01,2013-02-23 00:04:00,
2013-02-22 17:05:00,46.4,26.8,30.07,West,278,12.0,15.0,46,0.00,,---,0.01,VWS V14.01,2013-02-23 00:05:00,
2013-02-22 17:09:00,46.3,27.7,30.08,WNW,292,8.0,13.0,48,0.00,,---,0.01,VWS V14.01,2013-02-23 00:09:00,
2013-02-22 17:10:00,46.2,27.6,30.07,West,273,10.0,17.0,48,0.00,,---,0.01,VWS V14.01,2013-02-23 00:10:00,
2013-02-22 17:14:00,46.3,28.2,30.08,West,271,13.0,16.0,49,0.00,,---,0.01,VWS V14.01,2013-02-23 00:14:00,
2013-02-22 17:15:00,46.3,28.2,30.07,WNW,290,10.0,14.0,49,0.00,,---,0.01,VWS V14.01,2013-02-23 00:15:00,
2013-02-22 17:19:00,45.9,27.3,30.08,WNW,290,11.0,11.0,48,0.00,,---,0.01,VWS V14.01,2013-02-23 00:19:00,
2013-02-22 17:20:00,46.0,27.4,30.08,NW,305,10.0,19.0,48,0.00,,---,0.01,VWS V14.01,2013-02-23 00:20:00,
2013-02-22 17:24:00,45.6,27.1,30.08,WNW,286,11.0,16.0,48,0.00,,---,0.01,VWS V14.01,2013-02-23 00:24:00,
2013-02-22 17:25:00,45.7,27.1,30.08,West,273,15.0,16.0,48,0.00,,---,0.01,VWS V14.01,2013-02-23 00:25:00,
2013-02-22 17:29:00,45.6,28.0,30.08,West,269,13.0,16.0,50,0.00,,---,0.01,VWS V14.01,2013-02-23 00:29:00,
2013-02-22 17:30:00,45.5,28.0,30.08,WNW,285,12.0,16.0,50,0.00,,---,0.01,VWS V14.01,2013-02-23 00:30:00,
2013-02-22 17:34:00,45.1,26.1,30.09,West,270,15.0,15.0,47,0.00,,---,0.01,VWS V14.01,2013-02-23 00:34:00,
2013-02-22 17:35:00,45.2,25.7,30.08,West,276,12.0,17.0,46,0.00,,---,0.01,VWS V14.01,2013-02-23 00:35:00,
2013-02-22 17:39:00,45.0,27.5,30.09,West,277,12.0,13.0,50,0.00,,---,0.01,VWS V14.01,2013-02-23 00:39:00,
2013-02-22 17:40:00,45.0,27.5,30.09,West,267,11.0,16.0,50,0.00,,---,0.01,VWS V14.01,2013-02-23 00:40:00,
2013-02-22 17:44:00,44.8,28.3,30.09,WNW,286,6.0,13.0,52,0.00,,---,0.01,VWS V14.01,2013-02-23 00:44:00,
2013-02-22 17:45:00,44.9,28.4,30.09,WNW,284,11.0,13.0,52,0.00,,---,0.01,VWS V14.01,2013-02-23 00:45:00,
2013-02-22 17:49:00,44.6,27.6,30.09,WNW,299,10.0,10.0,51,0.00,,---,0.01,VWS V14.01,2013-02-23 00:49:00,
2013-02-22 17:50:00,44.6,27.6,30.09,West,275,8.0,13.0,51,0.00,,---,0.01,VWS V14.01,2013-02-23 00:50:00,
2013-02-22 17:54:00,44.2,27.7,30.09,WNW,287,4.0,9.0,52,0.00,,---,0.01,VWS V14.01,2013-02-23 00:54:00,
2013-02-22 17:55:00,44.3,27.8,30.09,WNW,283,7.0,16.0,52,0.00,,---,0.01,VWS V14.01,2013-02-23 00:55:00,
2013-02-22 17:59:00,43.8,27.8,30.09,West,272,11.0,13.0,53,0.00,,---,0.01,VWS V14.01,2013-02-23 00:59:00,
2013-02-22 18:00:00,43.8,27.8,30.09,West,269,10.0,16.0,53,0.00,,---,0.01,VWS V14.01,2013-02-23 01:00:00,
2013-02-22 18:04:00,43.3,27.8,30.10,WNW,300,12.0,14.0,54,0.00,,---,0.01,VWS V14.01,2013-02-23 01:04:00,
2013-02-22 18:05:00,43.4,27.9,30.09,WNW,296,10.0,13.0,54,0.00,,---,0.01,VWS V14.01,2013-02-23 01:05:00,
2013-02-22 18:09:00,42.9,27.4,30.10,WNW,291,8.0,10.0,54,0.00,,---,0.01,VWS V14.01,2013-02-23 01:09:00,
2013-02-22 18:10:00,42.9,27.4,30.10,West,275,9.0,14.0,54,0.00,,---,0.01,VWS V14.01,2013-02-23 01:10:00,
2013-02-22 18:14:00,42.5,27.9,30.10,WNW,295,6.0,10.0,56,0.00,,---,0.01,VWS V14.01,2013-02-23 01:14:00,
2013-02-22 18:15:00,42.6,27.6,30.10,WNW,284,6.0,13.0,55,0.00,,---,0.01,VWS V14.01,2013-02-23 01:15:00,
2013-02-22 18:19:00,42.3,28.2,30.10,WNW,294,4.0,6.0,57,0.00,,---,0.01,VWS V14.01,2013-02-23 01:19:00,
2013-02-22 18:20:00,42.3,28.2,30.10,WNW,295,5.0,12.0,57,0.00,,---,0.01,VWS V14.01,2013-02-23 01:20:00,
2013-02-22 18:24:00,42.0,27.9,30.10,WNW,294,8.0,9.0,57,0.00,,---,0.01,VWS V14.01,2013-02-23 01:24:00,
2013-02-22 18:25:00,42.0,28.3,30.10,WNW,290,6.0,10.0,58,0.00,,---,0.01,VWS V14.01,2013-02-23 01:25:00,
2013-02-22 18:29:00,41.7,28.0,30.10,WNW,291,4.0,7.0,58,0.00,,---,0.01,VWS V14.01,2013-02-23 01:29:00,
2013-02-22 18:30:00,41.8,28.1,30.10,WNW,284,3.0,9.0,58,0.00,,---,0.01,VWS V14.01,2013-02-23 01:30:00,
2013-02-22 18:34:00,41.5,28.3,30.10,WNW,301,4.0,8.0,59,0.00,,---,0.01,VWS V14.01,2013-02-23 01:34:00,
2013-02-22 18:35:00,41.6,28.4,30.10,WNW,302,8.0,11.0,59,0.00,,---,0.01,VWS V14.01,2013-02-23 01:35:00,
2013-02-22 18:39:00,41.3,28.1,30.10,WNW,294,6.0,6.0,59,0.00,,---,0.01,VWS V14.01,2013-02-23 01:39:00,
2013-02-22 18:40:00,41.3,28.1,30.10,WNW,294,5.0,10.0,59,0.00,,---,0.01,VWS V14.01,2013-02-23 01:40:00,
2013-02-22 18:44:00,41.2,28.0,30.11,WNW,301,6.0,8.0,59,0.00,,---,0.01,VWS V14.01,2013-02-23 01:44:00,
2013-02-22 18:45:00,41.2,28.0,30.11,WNW,302,7.0,10.0,59,0.00,,---,0.01,VWS V14.01,2013-02-23 01:45:00,
2013-02-22 18:49:00,41.1,28.3,30.11,WNW,303,3.0,7.0,60,0.00,,---,0.01,VWS V14.01,2013-02-23 01:49:00,
2013-02-22 18:50:00,41.1,28.3,30.11,WNW,303,5.0,10.0,60,0.00,,---,0.01,VWS V14.01,2013-02-23 01:50:00,
2013-02-22 18:54:00,40.9,28.1,30.11,NW,317,2.0,7.0,60,0.00,,---,0.01,VWS V14.01,2013-02-23 01:54:00,
2013-02-22 18:55:00,40.9,28.1,30.11,NW,315,5.0,9.0,60,0.00,,---,0.01,VWS V14.01,2013-02-23 01:55:00,
2013-02-22 18:58:00,40.7,28.3,30.12,NW,304,4.0,6.0,61,0.00,,---,0.01,VWS V14.01,2013-02-23 01:58:00,
2013-02-22 19:00:00,40.7,28.3,30.11,NW,309,1.0,8.0,61,0.00,,---,0.01,VWS V14.01,2013-02-23 02:00:00,
2013-02-22 19:03:00,40.4,28.0,30.12,NW,317,3.0,6.0,61,0.00,,---,0.01,VWS V14.01,2013-02-23 02:03:00,
2013-02-22 19:05:00,40.4,28.0,30.12,NW,310,4.0,7.0,61,0.00,,---,0.01,VWS V14.01,2013-02-23 02:05:00,
2013-02-22 19:08:00,40.3,28.3,30.12,NW,308,1.0,1.0,62,0.00,,---,0.01,VWS V14.01,2013-02-23 02:08:00,
2013-02-22 19:10:00,40.3,28.3,30.12,NW,308,0.0,6.0,62,0.00,,---,0.01,VWS V14.01,2013-02-23 02:10:00,
2013-02-22 19:13:00,40.0,28.4,30.12,NW,308,3.0,3.0,63,0.00,,---,0.01,VWS V14.01,2013-02-23 02:13:00,
2013-02-22 19:15:00,40.1,28.5,30.12,NW,307,2.0,3.0,63,0.00,,---,0.01,VWS V14.01,2013-02-23 02:15:00,
2013-02-22 19:18:00,39.9,28.3,30.12,NW,308,0.0,2.0,63,0.00,,---,0.01,VWS V14.01,2013-02-23 02:18:00,
2013-02-22 19:20:00,39.9,28.3,30.12,NW,308,2.0,4.0,63,0.00,,---,0.01,VWS V14.01,2013-02-23 02:20:00,
2013-02-22 19:23:00,39.6,28.4,30.12,NW,312,0.0,1.0,64,0.00,,---,0.01,VWS V14.01,2013-02-23 02:23:00,
2013-02-22 19:25:00,39.6,28.4,30.12,NW,309,1.0,3.0,64,0.00,,---,0.01,VWS V14.01,2013-02-23 02:25:00,
2013-02-22 19:28:00,39.3,28.2,30.12,NW,313,0.0,0.0,64,0.00,,---,0.01,VWS V14.01,2013-02-23 02:28:00,
2013-02-22 19:30:00,39.3,28.2,30.13,NW,313,0.0,3.0,64,0.00,,---,0.01,VWS V14.01,2013-02-23 02:30:00,
2013-02-22 19:33:00,39.1,28.3,30.13,NW,319,1.0,4.0,65,0.00,,---,0.01,VWS V14.01,2013-02-23 02:33:00,
2013-02-22 19:35:00,39.1,28.3,30.13,NW,319,4.0,6.0,65,0.00,,---,0.01,VWS V14.01,2013-02-23 02:35:00,
2013-02-22 19:38:00,39.0,28.2,30.13,NW,319,0.0,1.0,65,0.00,,---,0.01,VWS V14.01,2013-02-23 02:38:00,
2013-02-22 19:40:00,39.0,28.2,30.14,NW,319,1.0,5.0,65,0.00,,---,0.01,VWS V14.01,2013-02-23 02:40:00,
2013-02-22 19:43:00,39.1,28.3,30.14,NW,319,0.0,0.0,65,0.00,,---,0.01,VWS V14.01,2013-02-23 02:43:00,
2013-02-22 19:45:00,39.1,28.3,30.14,NW,319,0.0,4.0,65,0.00,,---,0.01,VWS V14.01,2013-02-23 02:45:00,
2013-02-22 19:48:00,38.9,28.1,30.14,NW,321,3.0,3.0,65,0.00,,---,0.01,VWS V14.01,2013-02-23 02:48:00,
2013-02-22 19:50:00,38.9,28.1,30.14,NW,319,0.0,4.0,65,0.00,,---,0.01,VWS V14.01,2013-02-23 02:50:00,
2013-02-22 19:53:00,38.8,28.4,30.14,NW,322,0.0,0.0,66,0.00,,---,0.01,VWS V14.01,2013-02-23 02:53:00,
2013-02-22 19:55:00,38.8,28.4,30.14,NW,323,0.0,5.0,66,0.00,,---,0.01,VWS V14.01,2013-02-23 02:55:00,
2013-02-22 19:58:00,38.5,28.1,30.14,NW,323,0.0,0.0,66,0.00,,---,0.01,VWS V14.01,2013-02-23 02:58:00,
2013-02-22 20:00:00,38.5,28.1,30.14,NW,323,0.0,2.0,66,0.00,,---,0.01,VWS V14.01,2013-02-23 03:00:00,
2013-02-22 20:03:00,38.2,27.9,30.14,NW,323,0.0,0.0,66,0.00,,---,0.01,VWS V14.01,2013-02-23 03:03:00,
2013-02-22 20:05:00,38.2,27.9,30.14,NW,323,0.0,2.0,66,0.00,,---,0.01,VWS V14.01,2013-02-23 03:05:00,
2013-02-22 20:08:00,38.0,28.0,30.14,NW,323,0.0,0.0,67,0.00,,---,0.01,VWS V14.01,2013-02-23 03:08:00,
2013-02-22 20:10:00,38.0,28.0,30.14,NW,323,0.0,1.0,67,0.00,,---,0.01,VWS V14.01,2013-02-23 03:10:00,
2013-02-22 20:13:00,37.7,28.1,30.14,NW,323,0.0,0.0,68,0.00,,---,0.01,VWS V14.01,2013-02-23 03:13:00,
2013-02-22 20:15:00,37.7,28.1,30.14,NW,322,0.0,0.0,68,0.00,,---,0.01,VWS V14.01,2013-02-23 03:15:00,
2013-02-22 20:18:00,37.4,27.8,30.14,NW,322,0.0,0.0,68,0.00,,---,0.01,VWS V14.01,2013-02-23 03:18:00,
2013-02-22 20:20:00,37.4,27.8,30.14,NW,322,0.0,0.0,68,0.00,,---,0.01,VWS V14.01,2013-02-23 03:20:00,
2013-02-22 20:24:00,37.2,28.0,30.14,NW,323,0.0,0.0,69,0.00,,---,0.01,VWS V14.01,2013-02-23 03:24:00,
2013-02-22 20:25:00,37.2,28.0,30.14,NW,323,0.0,0.0,69,0.00,,---,0.01,VWS V14.01,2013-02-23 03:25:00,
2013-02-22 20:29:00,37.1,28.2,30.14,NW,322,0.0,0.0,70,0.00,,---,0.01,VWS V14.01,2013-02-23 03:29:00,
2013-02-22 20:30:00,37.0,28.1,30.15,NW,323,0.0,0.0,70,0.00,,---,0.01,VWS V14.01,2013-02-23 03:30:00,
2013-02-22 20:34:00,37.2,28.3,30.15,NW,322,0.0,0.0,70,0.00,,---,0.01,VWS V14.01,2013-02-23 03:34:00,
2013-02-22 20:35:00,37.1,28.2,30.15,NW,322,0.0,0.0,70,0.00,,---,0.01,VWS V14.01,2013-02-23 03:35:00,
2013-02-22 20:39:00,37.3,28.4,30.14,WNW,290,0.0,0.0,70,0.00,,---,0.01,VWS V14.01,2013-02-23 03:39:00,
2013-02-22 20:40:00,37.3,28.4,30.15,WNW,290,0.0,6.0,70,0.00,,---,0.01,VWS V14.01,2013-02-23 03:40:00,
2013-02-22 20:44:00,37.3,28.4,30.15,WNW,290,0.0,0.0,70,0.00,,---,0.01,VWS V14.01,2013-02-23 03:44:00,
2013-02-22 20:45:00,37.3,28.4,30.15,WNW,290,0.0,2.0,70,0.00,,---,0.01,VWS V14.01,2013-02-23 03:45:00,
2013-02-22 20:49:00,37.0,28.5,30.15,WNW,290,0.0,0.0,71,0.00,,---,0.01,VWS V14.01,2013-02-23 03:49:00,
2013-02-22 20:50:00,37.1,28.6,30.15,WNW,290,0.0,0.0,71,0.00,,---,0.01,VWS V14.01,2013-02-23 03:50:00,
2013-02-22 20:54:00,36.8,28.3,30.15,WNW,290,0.0,2.0,71,0.00,,---,0.01,VWS V14.01,2013-02-23 03:54:00,
2013-02-22 20:55:00,36.8,28.3,30.15,WNW,290,0.0,0.0,71,0.00,,---,0.01,VWS V14.01,2013-02-23 03:55:00,
2013-02-22 20:59:00,36.5,28.4,30.15,WNW,290,0.0,0.0,72,0.00,,---,0.01,VWS V14.01,2013-02-23 03:59:00,
2013-02-22 21:00:00,36.5,28.0,30.15,WNW,290,0.0,2.0,71,0.00,,---,0.01,VWS V14.01,2013-02-23 04:00:00,
2013-02-22 21:04:00,36.2,28.4,30.15,WNW,290,0.0,0.0,73,0.00,,---,0.01,VWS V14.01,2013-02-23 04:04:00,
2013-02-22 21:05:00,36.2,28.1,30.15,WNW,290,0.0,0.0,72,0.00,,---,0.01,VWS V14.01,2013-02-23 04:05:00,
2013-02-22 21:09:00,35.9,28.1,30.15,WNW,290,0.0,0.0,73,0.00,,---,0.01,VWS V14.01,2013-02-23 04:09:00,
2013-02-22 21:10:00,35.9,28.1,30.15,WNW,290,0.0,0.0,73,0.00,,---,0.01,VWS V14.01,2013-02-23 04:10:00,
2013-02-22 21:14:00,35.7,27.9,30.15,WNW,291,0.0,0.0,73,0.00,,---,0.01,VWS V14.01,2013-02-23 04:14:00,
2013-02-22 21:15:00,35.7,27.9,30.15,WNW,291,0.0,2.0,73,0.00,,---,0.01,VWS V14.01,2013-02-23 04:15:00,
2013-02-22 21:19:00,35.6,27.8,30.16,WNW,290,0.0,0.0,73,0.00,,---,0.01,VWS V14.01,2013-02-23 04:19:00,
2013-02-22 21:20:00,35.6,27.8,30.16,WNW,291,0.0,0.0,73,0.00,,---,0.01,VWS V14.01,2013-02-23 04:20:00,
2013-02-22 21:24:00,35.1,27.3,30.16,WNW,290,0.0,0.0,73,0.00,,---,0.01,VWS V14.01,2013-02-23 04:24:00,
2013-02-22 21:25:00,35.2,27.4,30.16,WNW,290,0.0,0.0,73,0.00,,---,0.01,VWS V14.01,2013-02-23 04:25:00,
2013-02-22 21:29:00,34.3,27.2,30.17,WNW,291,0.0,0.0,75,0.00,,---,0.01,VWS V14.01,2013-02-23 04:29:00,
2013-02-22 21:30:00,34.4,27.3,30.16,WNW,290,0.0,0.0,75,0.00,,---,0.01,VWS V14.01,2013-02-23 04:30:00,
2013-02-22 21:34:00,33.1,26.7,30.17,WNW,298,0.0,0.0,77,0.00,,---,0.01,VWS V14.01,2013-02-23 04:34:00,
2013-02-22 21:35:00,33.2,26.5,30.17,WNW,298,0.0,2.0,76,0.00,,---,0.01,VWS V14.01,2013-02-23 04:35:00,
2013-02-22 21:39:00,33.0,26.9,30.17,NNW,332,0.0,0.0,78,0.00,,---,0.01,VWS V14.01,2013-02-23 04:39:00,
2013-02-22 21:40:00,33.0,26.9,30.17,NNW,331,0.0,2.0,78,0.00,,---,0.01,VWS V14.01,2013-02-23 04:40:00,
2013-02-22 21:44:00,33.4,27.0,30.16,NNW,332,0.0,0.0,77,0.00,,---,0.01,VWS V14.01,2013-02-23 04:44:00,
2013-02-22 21:45:00,33.4,27.3,30.17,NNW,332,0.0,0.0,78,0.00,,---,0.01,VWS V14.01,2013-02-23 04:45:00,
2013-02-22 21:49:00,33.9,27.5,30.17,NNW,334,0.0,0.0,77,0.00,,---,0.01,VWS V14.01,2013-02-23 04:49:00,
2013-02-22 21:50:00,33.8,27.4,30.17,NNW,333,0.0,0.0,77,0.00,,---,0.01,VWS V14.01,2013-02-23 04:50:00,
2013-02-22 21:54:00,34.0,27.2,30.17,NNW,336,0.0,0.0,76,0.00,,---,0.01,VWS V14.01,2013-02-23 04:54:00,
2013-02-22 21:55:00,34.0,27.2,30.17,NNW,336,0.0,0.0,76,0.00,,---,0.01,VWS V14.01,2013-02-23 04:55:00,
2013-02-22 21:59:00,33.5,26.4,30.17,North,360,2.0,4.0,75,0.00,,---,0.01,VWS V14.01,2013-02-23 04:59:00,
2013-02-22 22:00:00,33.4,26.3,30.17,North,9,2.0,4.0,75,0.00,,---,0.01,VWS V14.01,2013-02-23 05:00:00,
2013-02-22 22:05:00,32.3,25.6,30.17,NE,40,2.0,3.0,76,0.00,,---,0.01,VWS V14.01,2013-02-23 05:05:00,
2013-02-22 22:10:00,31.9,25.5,30.17,NE,45,3.0,3.0,77,0.00,,---,0.01,VWS V14.01,2013-02-23 05:10:00,
2013-02-22 22:15:00,31.4,25.4,30.17,NE,46,2.0,3.0,78,0.00,,---,0.01,VWS V14.01,2013-02-23 05:15:00,
2013-02-22 22:20:00,30.8,25.1,30.18,NE,46,1.0,2.0,79,0.00,,---,0.01,VWS V14.01,2013-02-23 05:20:00,
2013-02-22 22:25:00,30.2,25.1,30.18,NE,48,2.0,3.0,81,0.00,,---,0.01,VWS V14.01,2013-02-23 05:25:00,
2013-02-22 22:30:00,30.1,25.6,30.18,NE,48,0.0,0.0,83,0.00,,---,0.01,VWS V14.01,2013-02-23 05:30:00,
2013-02-22 22:35:00,30.2,26.0,30.18,NE,48,0.0,0.0,84,0.00,,---,0.01,VWS V14.01,2013-02-23 05:35:00,
2013-02-22 22:40:00,30.2,26.0,30.18,NE,48,0.0,0.0,84,0.00,,---,0.01,VWS V14.01,2013-02-23 05:40:00,
2013-02-22 22:45:00,30.2,26.0,30.18,NE,49,0.0,0.0,84,0.00,,---,0.01,VWS V14.01,2013-02-23 05:45:00,
2013-02-22 22:50:00,30.0,25.8,30.17,NE,48,0.0,0.0,84,0.00,,---,0.01,VWS V14.01,2013-02-23 05:50:00,
2013-02-22 22:55:00,29.7,25.5,30.17,NE,49,0.0,0.0,84,0.00,,---,0.01,VWS V14.01,2013-02-23 05:55:00,
2013-02-22 23:00:00,29.5,25.3,30.17,NE,48,0.0,0.0,84,0.00,,---,0.01,VWS V14.01,2013-02-23 06:00:00,
2013-02-22 23:05:00,29.3,25.1,30.17,NE,48,0.0,0.0,84,0.00,,---,0.01,VWS V14.01,2013-02-23 06:05:00,
2013-02-22 23:10:00,28.9,24.7,30.17,NE,49,0.0,0.0,84,0.00,,---,0.01,VWS V14.01,2013-02-23 06:10:00,
2013-02-22 23:15:00,28.8,24.9,30.17,NE,48,1.0,2.0,85,0.00,,---,0.01,VWS V14.01,2013-02-23 06:15:00,
2013-02-22 23:20:00,28.7,24.8,30.17,NE,48,0.0,0.0,85,0.00,,---,0.01,VWS V14.01,2013-02-23 06:20:00,
2013-02-22 23:25:00,28.4,24.5,30.17,NE,49,0.0,0.0,85,0.00,,---,0.01,VWS V14.01,2013-02-23 06:25:00,
2013-02-22 23:30:00,28.2,24.3,30.17,NE,49,0.0,0.0,85,0.00,,---,0.01,VWS V14.01,2013-02-23 06:30:00,
2013-02-22 23:35:00,28.1,24.5,30.17,NE,49,0.0,0.0,86,0.00,,---,0.01,VWS V14.01,2013-02-23 06:35:00,
2013-02-22 23:40:00,28.0,24.4,30.17,NE,49,0.0,0.0,86,0.00,,---,0.01,VWS V14.01,2013-02-23 06:40:00,
2013-02-22 23:45:00,27.8,24.2,30.17,NE,48,0.0,0.0,86,0.00,,---,0.01,VWS V14.01,2013-02-23 06:45:00,
2013-02-22 23:50:00,27.6,24.0,30.17,NE,48,3.0,3.0,86,0.00,,---,0.01,VWS V14.01,2013-02-23 06:50:00,
2013-02-22 23:55:00,27.9,24.3,30.17,NE,48,3.0,4.0,86,0.00,,---,0.01,VWS V14.01,2013-02-23 06:55:00,